Buoy 41910

sailwx.info

Track history (hours):
 
Tides and Currents Weather Stations Pressure Air Temp Water Temp Dewpoint Dewpoint Depression Visibility Wind Speed Wind Dir Waves Ship Positions

Drifting buoy 41910

Last reported at 2014-Oct-25 23:34 UTC. Time now 2014-Oct-26 01:57 UTC.
Position N 31°30' W 054°20'.

Water temperature 25.9 ° C

Date/timePositionNaut miles runAvg speedWind from/ knotsBaromVisibWave heightAir tempDewpointWater temp
2014-Oct-25 23:34N 31°30' W 054°20'0 0.0 25.9
2014-Oct-25 21:36N 31°30' W 054°20'2 3.7 26.0
2014-Oct-25 21:09N 31°31' W 054°21'0 0.0 26.0
2014-Oct-25 19:57N 31°31' W 054°21'0 0.0 26.0
2014-Oct-25 19:27N 31°31' W 054°21'0 0.4 26.0
2014-Oct-25 18:16N 31°31' W 054°21'1 0.6 26.0
2014-Oct-25 16:10N 31°31' W 054°23'2 0.6 26.0
2014-Oct-25 13:06N 31°30' W 054°24'0 0.0 25.9
2014-Oct-25 12:14N 31°30' W 054°24'0 0.2 25.8
2014-Oct-25 10:09N 31°29' W 054°24'0 0.0 25.8
2014-Oct-25 09:53N 31°29' W 054°24'1 5.3 25.8
2014-Oct-25 09:45N 31°29' W 054°24'0 0.0 25.8
2014-Oct-25 08:33N 31°29' W 054°24'0 1.9 25.8
2014-Oct-25 08:24N 31°29' W 054°24'0 0.0 25.8
2014-Oct-25 08:08N 31°29' W 054°24'4 2.9 25.8
2014-Oct-25 06:45N 31°32' W 054°21'0 0.0 25.8
2014-Oct-25 06:26N 31°32' W 054°21'0 0.0 25.8
2014-Oct-24 21:28N 31°32' W 054°21'0 0.0 25.9
2014-Oct-24 20:09N 31°32' W 054°21'1 5.2 25.9
2014-Oct-24 19:52N 31°33' W 054°23'0 0.1 25.9
2014-Oct-24 18:27N 31°33' W 054°23'3 8.0 25.9
2014-Oct-24 18:03N 31°30' W 054°25'0 0.0 26.0
2014-Oct-24 16:19N 31°30' W 054°25'0 0.0
2014-Oct-24 10:20N 31°30' W 054°25'0 0.0 25.8
2014-Oct-24 10:12N 31°30' W 054°25'133.1 25.8
2014-Oct-24 10:11N 31°29' W 054°24'0 0.0 25.8
2014-Oct-24 08:42N 31°29' W 054°24'0 0.8 25.8
2014-Oct-24 08:36N 31°29' W 054°24'0 0.0 25.8
2014-Oct-24 08:32N 31°29' W 054°24'5 6.0 25.8
2014-Oct-24 07:45N 31°33' W 054°21'0 0.0
2014-Oct-24 07:00N 31°33' W 054°21'0 0.0 25.8
2014-Oct-24 01:56N 31°33' W 054°21'0 0.2 25.8
2014-Oct-24 00:13N 31°33' W 054°21'0 0.0 25.9
2014-Oct-23 21:55N 31°33' W 054°21'1 0.6 25.9
2014-Oct-23 20:20N 31°34' W 054°22'290.1 26.0
2014-Oct-23 20:19N 31°33' W 054°24'0 0.2 26.0
2014-Oct-23 18:38N 31°33' W 054°24'217.5 26.0
2014-Oct-23 18:31N 31°33' W 054°27'6 3.1 26.0
2014-Oct-23 16:28N 31°28' W 054°21'0 0.0 26.0
2014-Oct-23 14:45N 31°28' W 054°21'0 0.0 25.9
2014-Oct-23 10:39N 31°28' W 054°21'1 9.2 25.8
2014-Oct-23 10:31N 31°28' W 054°19'0 0.0 25.8
2014-Oct-23 09:47N 31°28' W 054°19'0 0.0 25.8
2014-Oct-23 09:00N 31°28' W 054°19'0 1.8 25.8
2014-Oct-23 08:56N 31°28' W 054°19'2 0.9 25.8
2014-Oct-23 07:15N 31°28' W 054°18'6 0.7 25.8
2014-Oct-22 22:17N 31°34' W 054°18'0 0.0 25.9
2014-Oct-22 20:43N 31°34' W 054°18'0 0.0 25.9
2014-Oct-22 20:32N 31°34' W 054°18'1 0.7 25.9
2014-Oct-22 18:52N 31°33' W 054°18'818.7 26.0
2014-Oct-22 18:26N 31°31' W 054°09'0 0.0 26.0
2014-Oct-22 09:21N 31°31' W 054°09'0 6.2 25.8
2014-Oct-22 09:19N 31°31' W 054°09'0 0.0 25.8
2014-Oct-22 09:10N 31°31' W 054°09'0 3.2 25.8
2014-Oct-22 09:06N 31°31' W 054°09'216.8
2014-Oct-22 09:00N 31°32' W 054°08'210.1 25.8
2014-Oct-22 08:49N 31°31' W 054°09'2 1.3 25.8
2014-Oct-22 07:26N 31°32' W 054°08'655.2 25.8
2014-Oct-22 07:20N 31°38' W 054°10'0 0.0 25.8
2014-Oct-22 07:05N 31°38' W 054°10'0 0.0 25.8
2014-Oct-22 00:54N 31°38' W 054°10'0 0.0 25.9
2014-Oct-21 23:15N 31°38' W 054°10'0 0.0 26.0
2014-Oct-21 21:37N 31°38' W 054°10'0 0.0 26.2
2014-Oct-21 20:43N 31°38' W 054°10'215.9 26.4
2014-Oct-21 20:35N 31°37' W 054°12'0 0.0 26.4
2014-Oct-21 19:25N 31°37' W 054°12'1 6.3 26.8
2014-Oct-21 19:17N 31°36' W 054°11'0 0.0 26.8
2014-Oct-21 19:01N 31°36' W 054°11'215.3 26.8
2014-Oct-21 18:55N 31°35' W 054°10'0 0.0 26.7
2014-Oct-21 16:58N 31°35' W 054°10'8 4.6 26.5
2014-Oct-21 15:12N 31°37' W 054°01'0 0.0 26.2
2014-Oct-21 12:03N 31°37' W 054°01'0 0.0 25.8
2014-Oct-21 10:57N 31°37' W 054°01'0 0.0 25.7
2014-Oct-21 09:42N 31°37' W 054°01'0 0.0 25.7
2014-Oct-21 09:21N 31°37' W 054°01'0 0.0 25.7
2014-Oct-21 09:16N 31°37' W 054°01'121.2 25.7
2014-Oct-21 09:12N 31°39' W 054°01'142.4 25.7
2014-Oct-21 09:10N 31°37' W 054°01'1 1.3 25.7
2014-Oct-21 08:06N 31°39' W 054°01'0 0.8 25.7
2014-Oct-21 07:38N 31°39' W 054°01'0 4.7 25.7
2014-Oct-21 07:32N 31°39' W 054°00'0 0.0 25.7
2014-Oct-21 07:14N 31°39' W 054°00'659.5 25.7
2014-Oct-21 07:08N 31°44' W 054°04'0 0.0 25.7
2014-Oct-21 01:18N 31°44' W 054°04'134.4 25.7
2014-Oct-21 01:17N 31°44' W 054°05'1 1.3 25.7
2014-Oct-21 00:27N 31°44' W 054°06'0 0.0 25.8
2014-Oct-20 23:45N 31°44' W 054°06'0 0.0 25.8
2014-Oct-20 23:38N 31°44' W 054°06'1 0.6 25.8
2014-Oct-20 22:08N 31°44' W 054°06'1 0.5 25.8
2014-Oct-20 20:55N 31°43' W 054°07'110.3 25.8
2014-Oct-20 20:47N 31°42' W 054°07'0 0.0 25.8
2014-Oct-20 20:20N 31°42' W 054°07'0 0.0 25.8
2014-Oct-20 19:50N 31°42' W 054°07'0 6.7 25.8
2014-Oct-20 19:46N 31°41' W 054°07'0 0.0 25.8
2014-Oct-20 19:14N 31°41' W 054°07'0 0.0 25.9
2014-Oct-20 19:10N 31°41' W 054°07'3 1.5 25.9
2014-Oct-20 17:10N 31°40' W 054°04'1 0.7 25.8
2014-Oct-20 15:28N 31°39' W 054°04'6 2.0 25.7
2014-Oct-20 12:21N 31°42' W 053°58'0 0.0 25.6
2014-Oct-20 10:15N 31°42' W 053°58'1 9.7 25.6
2014-Oct-20 10:09N 31°43' W 053°57'0 1.0 25.6
2014-Oct-20 09:48N 31°43' W 053°57'0 1.5 25.6
2014-Oct-20 09:33N 31°43' W 053°57'0 0.0 25.6
2014-Oct-20 09:30N 31°43' W 053°57'0 2.4
2014-Oct-20 09:25N 31°43' W 053°57'124.0 25.6
2014-Oct-20 09:22N 31°44' W 053°57'0 0.0 25.6
2014-Oct-20 08:31N 31°44' W 053°57'1 1.3 25.6
2014-Oct-20 07:45N 31°45' W 053°57'560.5 25.6
2014-Oct-20 07:40N 31°49' W 054°01'0 0.0 25.6
2014-Oct-20 07:21N 31°49' W 054°01'0 0.0 25.6
2014-Oct-20 05:42N 31°49' W 054°01'0 0.0 25.6
2014-Oct-20 01:41N 31°49' W 054°01'1 0.8 25.7
2014-Oct-20 00:03N 31°49' W 054°03'0 1.6 25.7
2014-Oct-20 00:00N 31°49' W 054°03'3 1.3 25.7
2014-Oct-19 21:53N 31°46' W 054°03'0 0.0 25.8
2014-Oct-19 21:05N 31°46' W 054°03'1 4.2 25.8
2014-Oct-19 20:57N 31°45' W 054°03'2 2.3 25.8
2014-Oct-19 20:17N 31°45' W 054°04'291.9 25.8
2014-Oct-19 20:16N 31°45' W 054°03'0 0.0 25.8
2014-Oct-19 19:26N 31°45' W 054°03'0 0.0 25.8
2014-Oct-19 19:25N 31°45' W 054°03'326.9 25.8
2014-Oct-19 19:19N 31°43' W 053°60'0 0.0 25.8
2014-Oct-19 18:31N 31°43' W 053°60'2 1.7
2014-Oct-19 17:20N 31°43' W 053°58'0 0.0 25.8
2014-Oct-19 15:38N 31°43' W 053°58'3 2.2 25.8
2014-Oct-19 14:26N 31°42' W 053°55'6 6.2 25.8
2014-Oct-19 13:32N 31°46' W 053°50'3 4.3 25.8
2014-Oct-19 12:46N 31°44' W 053°53'324.5 25.7
2014-Oct-19 12:38N 31°46' W 053°50'0 0.0 25.7
2014-Oct-19 10:37N 31°46' W 053°50'112.6 25.7
2014-Oct-19 10:31N 31°48' W 053°50'1 4.7 25.7
2014-Oct-19 10:15N 31°46' W 053°50'1 2.1
2014-Oct-19 09:39N 31°48' W 053°50'0 0.0 25.7
2014-Oct-19 09:34N 31°48' W 053°50'2 3.5 25.7
2014-Oct-19 08:54N 31°50' W 053°49'1 4.3 25.7
2014-Oct-19 08:42N 31°49' W 053°49'1 1.4 25.7
2014-Oct-19 08:03N 31°50' W 053°49'0 0.9 25.7
2014-Oct-19 07:58N 31°50' W 053°49'512.7 25.7
2014-Oct-19 07:33N 31°53' W 053°54'0 0.0 25.7
2014-Oct-19 07:18N 31°53' W 053°54'0 0.0 25.7
2014-Oct-19 05:58N 31°53' W 053°54'0 0.0 25.7
2014-Oct-19 05:51N 31°53' W 053°54'0 0.0 25.7
2014-Oct-19 04:12N 31°53' W 053°54'0 0.0 25.7
2014-Oct-19 01:59N 31°53' W 053°54'0 0.0 25.7
2014-Oct-19 01:09N 31°53' W 053°54'0 0.0 25.7
2014-Oct-19 00:24N 31°53' W 053°54'1 1.5 25.7
2014-Oct-18 23:36N 31°52' W 053°55'0 0.0 25.7
2014-Oct-18 23:08N 31°52' W 053°55'1 1.7 25.7
2014-Oct-18 22:17N 31°50' W 053°54'0 0.0 25.7
2014-Oct-18 21:30N 31°50' W 053°54'1 3.9 25.8
2014-Oct-18 21:11N 31°50' W 053°53'0 0.2
2014-Oct-18 20:42N 31°50' W 053°53'1 1.1 25.8
2014-Oct-18 19:36N 31°49' W 053°52'2 4.3 25.8
2014-Oct-18 19:09N 31°48' W 053°50'0 0.0 25.8
2014-Oct-18 18:54N 31°48' W 053°50'0 0.0 25.8
2014-Oct-18 17:54N 31°48' W 053°50'1 1.7 25.8
2014-Oct-18 17:34N 31°48' W 053°50'5 2.8 25.8
2014-Oct-18 15:44N 31°50' W 053°44'4 1.3 25.8
2014-Oct-18 12:58N 31°54' W 053°43'0 0.1 25.7
2014-Oct-18 10:47N 31°54' W 053°43'0 0.1 25.7
2014-Oct-18 09:49N 31°54' W 053°43'0 4.0 25.7
2014-Oct-18 09:44N 31°54' W 053°43'2 3.8 25.7
2014-Oct-18 09:16N 31°55' W 053°44'2107.6 25.7
2014-Oct-18 09:15N 31°54' W 053°43'2 1.6 25.7
2014-Oct-18 08:09N 31°55' W 053°44'118.7 25.7
2014-Oct-18 08:06N 31°56' W 053°43'0 0.0 25.7
2014-Oct-18 07:40N 31°56' W 053°43'0 0.0 25.7
2014-Oct-18 06:31N 31°56' W 053°43'342.4 25.7
2014-Oct-18 06:27N 31°57' W 053°47'0 0.0 25.7
2014-Oct-18 06:01N 31°57' W 053°47'0 0.0
2014-Oct-18 01:30N 31°57' W 053°47'1 0.8 25.6
2014-Oct-17 23:50N 31°56' W 053°45'0 0.3 25.6
2014-Oct-17 23:36N 31°56' W 053°45'0 0.0 25.6
2014-Oct-17 23:05N 31°56' W 053°45'1 0.5 25.6
2014-Oct-17 21:06N 31°56' W 053°44'1 0.6 25.6
2014-Oct-17 19:48N 31°55' W 053°44'1 1.7 25.6
2014-Oct-17 19:24N 31°55' W 053°43'1 0.5 25.6
2014-Oct-17 18:05N 31°55' W 053°42'4 8.6 25.6
2014-Oct-17 17:39N 31°56' W 053°38'2 1.3 25.6
2014-Oct-17 16:00N 31°58' W 053°37'0 0.0 25.5
2014-Oct-17 15:05N 31°58' W 053°37'5 6.5 25.5
2014-Oct-17 14:17N 32°02' W 053°34'0 0.0 25.4
2014-Oct-17 12:32N 32°02' W 053°33'0 0.0 25.4
2014-Oct-17 11:40N 32°02' W 053°33'0 0.0 25.4
2014-Oct-17 10:02N 32°02' W 053°33'0 0.5 25.4
2014-Oct-17 09:49N 32°02' W 053°33'216.3 25.4
2014-Oct-17 09:41N 32°04' W 053°35'0 0.0 25.4
2014-Oct-17 08:25N 32°04' W 053°35'0 0.0 25.4
2014-Oct-17 08:20N 32°04' W 053°35'0 3.1 25.4
2014-Oct-17 08:17N 32°04' W 053°34'0 2.2 25.4
2014-Oct-17 08:07N 32°05' W 053°34'0 0.0 25.4
2014-Oct-17 08:05N 32°05' W 053°34'2 1.1 25.4
2014-Oct-17 06:41N 32°06' W 053°35'0 1.1 25.4
2014-Oct-17 06:20N 32°06' W 053°35'216.4 25.4
2014-Oct-17 06:11N 32°07' W 053°37'0 0.0 25.4
2014-Oct-17 04:33N 32°07' W 053°37'0 0.0 25.4
2014-Oct-17 01:04N 32°07' W 053°37'1 1.2 25.4
2014-Oct-17 00:16N 32°07' W 053°38'0 0.0 25.5
2014-Oct-16 23:27N 32°07' W 053°38'212.2 25.5
2014-Oct-16 23:19N 32°06' W 053°36'0 0.0 25.5
2014-Oct-16 22:30N 32°06' W 053°36'0 0.0 25.5
2014-Oct-16 21:36N 32°06' W 053°36'0 0.0 25.5
2014-Oct-16 21:30N 32°06' W 053°36'1 1.6 25.5
2014-Oct-16 20:45N 32°06' W 053°34'0 0.0 25.5
2014-Oct-16 20:00N 32°06' W 053°34'0 2.5 25.5
2014-Oct-16 19:49N 32°06' W 053°34'0 0.0 25.5
2014-Oct-16 18:18N 32°06' W 053°34'11 1.7 25.6
2014-Oct-16 12:00N 32°15' W 053°27'0 0.0 25.5
2014-Oct-16 10:16N 32°15' W 053°27'4 2.4 25.5
2014-Oct-16 08:31N 32°19' W 053°29'0 0.0 25.5
2014-Oct-16 08:28N 32°19' W 053°29'0 0.1 25.5
2014-Oct-16 06:50N 32°19' W 053°29'   25.5
Track history (hours):
 
Tides and Currents Weather Stations Pressure Air Temp Water Temp Dewpoint Dewpoint Depression Visibility Wind Speed Wind Dir Waves Ship Positions

Drifting buoy 41910

Last reported at 2014-Oct-25 23:34 UTC. Time now 2014-Oct-26 01:57 UTC.
Position N 31°30' W 054°20'.

Water temperature 25.9 ° C

Date/timePositionNaut miles runAvg speedWind from/ knotsBaromVisibWave heightAir tempDewpointWater temp
2014-Oct-25 23:34N 31°30' W 054°20'0 0.0 25.9
2014-Oct-25 21:36N 31°30' W 054°20'2 3.7 26.0
2014-Oct-25 21:09N 31°31' W 054°21'0 0.0 26.0
2014-Oct-25 19:57N 31°31' W 054°21'0 0.0 26.0
2014-Oct-25 19:27N 31°31' W 054°21'0 0.4 26.0
2014-Oct-25 18:16N 31°31' W 054°21'1 0.6 26.0
2014-Oct-25 16:10N 31°31' W 054°23'2 0.6 26.0
2014-Oct-25 13:06N 31°30' W 054°24'0 0.0 25.9
2014-Oct-25 12:14N 31°30' W 054°24'0 0.2 25.8
2014-Oct-25 10:09N 31°29' W 054°24'0 0.0 25.8
2014-Oct-25 09:53N 31°29' W 054°24'1 5.3 25.8
2014-Oct-25 09:45N 31°29' W 054°24'0 0.0 25.8
2014-Oct-25 08:33N 31°29' W 054°24'0 1.9 25.8
2014-Oct-25 08:24N 31°29' W 054°24'0 0.0 25.8
2014-Oct-25 08:08N 31°29' W 054°24'4 2.9 25.8
2014-Oct-25 06:45N 31°32' W 054°21'0 0.0 25.8
2014-Oct-25 06:26N 31°32' W 054°21'0 0.0 25.8
2014-Oct-24 21:28N 31°32' W 054°21'0 0.0 25.9
2014-Oct-24 20:09N 31°32' W 054°21'1 5.2 25.9
2014-Oct-24 19:52N 31°33' W 054°23'0 0.1 25.9
2014-Oct-24 18:27N 31°33' W 054°23'3 8.0 25.9
2014-Oct-24 18:03N 31°30' W 054°25'0 0.0 26.0
2014-Oct-24 16:19N 31°30' W 054°25'0 0.0
2014-Oct-24 10:20N 31°30' W 054°25'0 0.0 25.8
2014-Oct-24 10:12N 31°30' W 054°25'133.1 25.8
2014-Oct-24 10:11N 31°29' W 054°24'0 0.0 25.8
2014-Oct-24 08:42N 31°29' W 054°24'0 0.8 25.8
2014-Oct-24 08:36N 31°29' W 054°24'0 0.0 25.8
2014-Oct-24 08:32N 31°29' W 054°24'5 6.0 25.8
2014-Oct-24 07:45N 31°33' W 054°21'0 0.0
2014-Oct-24 07:00N 31°33' W 054°21'0 0.0 25.8
2014-Oct-24 01:56N 31°33' W 054°21'0 0.2 25.8
2014-Oct-24 00:13N 31°33' W 054°21'0 0.0 25.9
2014-Oct-23 21:55N 31°33' W 054°21'1 0.6 25.9
2014-Oct-23 20:20N 31°34' W 054°22'290.1 26.0
2014-Oct-23 20:19N 31°33' W 054°24'0 0.2 26.0
2014-Oct-23 18:38N 31°33' W 054°24'217.5 26.0
2014-Oct-23 18:31N 31°33' W 054°27'6 3.1 26.0
2014-Oct-23 16:28N 31°28' W 054°21'0 0.0 26.0
2014-Oct-23 14:45N 31°28' W 054°21'0 0.0 25.9
2014-Oct-23 10:39N 31°28' W 054°21'1 9.2 25.8
2014-Oct-23 10:31N 31°28' W 054°19'0 0.0 25.8
2014-Oct-23 09:47N 31°28' W 054°19'0 0.0 25.8
2014-Oct-23 09:00N 31°28' W 054°19'0 1.8 25.8
2014-Oct-23 08:56N 31°28' W 054°19'2 0.9 25.8
2014-Oct-23 07:15N 31°28' W 054°18'6 0.7 25.8
2014-Oct-22 22:17N 31°34' W 054°18'0 0.0 25.9
2014-Oct-22 20:43N 31°34' W 054°18'0 0.0 25.9
2014-Oct-22 20:32N 31°34' W 054°18'1 0.7 25.9
2014-Oct-22 18:52N 31°33' W 054°18'818.7 26.0
2014-Oct-22 18:26N 31°31' W 054°09'0 0.0 26.0
2014-Oct-22 09:21N 31°31' W 054°09'0 6.2 25.8
2014-Oct-22 09:19N 31°31' W 054°09'0 0.0 25.8
2014-Oct-22 09:10N 31°31' W 054°09'0 3.2 25.8
2014-Oct-22 09:06N 31°31' W 054°09'216.8
2014-Oct-22 09:00N 31°32' W 054°08'210.1 25.8
2014-Oct-22 08:49N 31°31' W 054°09'2 1.3 25.8
2014-Oct-22 07:26N 31°32' W 054°08'655.2 25.8
2014-Oct-22 07:20N 31°38' W 054°10'0 0.0 25.8
2014-Oct-22 07:05N 31°38' W 054°10'0 0.0 25.8
2014-Oct-22 00:54N 31°38' W 054°10'0 0.0 25.9
2014-Oct-21 23:15N 31°38' W 054°10'0 0.0 26.0
2014-Oct-21 21:37N 31°38' W 054°10'0 0.0 26.2
2014-Oct-21 20:43N 31°38' W 054°10'215.9 26.4
2014-Oct-21 20:35N 31°37' W 054°12'0 0.0 26.4
2014-Oct-21 19:25N 31°37' W 054°12'1 6.3 26.8
2014-Oct-21 19:17N 31°36' W 054°11'0 0.0 26.8
2014-Oct-21 19:01N 31°36' W 054°11'215.3 26.8
2014-Oct-21 18:55N 31°35' W 054°10'0 0.0 26.7
2014-Oct-21 16:58N 31°35' W 054°10'8 4.6 26.5
2014-Oct-21 15:12N 31°37' W 054°01'0 0.0 26.2
2014-Oct-21 12:03N 31°37' W 054°01'0 0.0 25.8
2014-Oct-21 10:57N 31°37' W 054°01'0 0.0 25.7
2014-Oct-21 09:42N 31°37' W 054°01'0 0.0 25.7
2014-Oct-21 09:21N 31°37' W 054°01'0 0.0 25.7
2014-Oct-21 09:16N 31°37' W 054°01'121.2 25.7
2014-Oct-21 09:12N 31°39' W 054°01'142.4 25.7
2014-Oct-21 09:10N 31°37' W 054°01'1 1.3 25.7
2014-Oct-21 08:06N 31°39' W 054°01'0 0.8 25.7
2014-Oct-21 07:38N 31°39' W 054°01'0 4.7 25.7
2014-Oct-21 07:32N 31°39' W 054°00'0 0.0 25.7
2014-Oct-21 07:14N 31°39' W 054°00'659.5 25.7
2014-Oct-21 07:08N 31°44' W 054°04'0 0.0 25.7
2014-Oct-21 01:18N 31°44' W 054°04'134.4 25.7
2014-Oct-21 01:17N 31°44' W 054°05'1 1.3 25.7
2014-Oct-21 00:27N 31°44' W 054°06'0 0.0 25.8
2014-Oct-20 23:45N 31°44' W 054°06'0 0.0 25.8
2014-Oct-20 23:38N 31°44' W 054°06'1 0.6 25.8
2014-Oct-20 22:08N 31°44' W 054°06'1 0.5 25.8
2014-Oct-20 20:55N 31°43' W 054°07'110.3 25.8
2014-Oct-20 20:47N 31°42' W 054°07'0 0.0 25.8
2014-Oct-20 20:20N 31°42' W 054°07'0 0.0 25.8
2014-Oct-20 19:50N 31°42' W 054°07'0 6.7 25.8
2014-Oct-20 19:46N 31°41' W 054°07'0 0.0 25.8
2014-Oct-20 19:14N 31°41' W 054°07'0 0.0 25.9
2014-Oct-20 19:10N 31°41' W 054°07'3 1.5 25.9
2014-Oct-20 17:10N 31°40' W 054°04'1 0.7 25.8
2014-Oct-20 15:28N 31°39' W 054°04'6 2.0 25.7
2014-Oct-20 12:21N 31°42' W 053°58'0 0.0 25.6
2014-Oct-20 10:15N 31°42' W 053°58'1 9.7 25.6
2014-Oct-20 10:09N 31°43' W 053°57'0 1.0 25.6
2014-Oct-20 09:48N 31°43' W 053°57'0 1.5 25.6
2014-Oct-20 09:33N 31°43' W 053°57'0 0.0 25.6
2014-Oct-20 09:30N 31°43' W 053°57'0 2.4
2014-Oct-20 09:25N 31°43' W 053°57'124.0 25.6
2014-Oct-20 09:22N 31°44' W 053°57'0 0.0 25.6
2014-Oct-20 08:31N 31°44' W 053°57'1 1.3 25.6
2014-Oct-20 07:45N 31°45' W 053°57'560.5 25.6
2014-Oct-20 07:40N 31°49' W 054°01'0 0.0 25.6
2014-Oct-20 07:21N 31°49' W 054°01'0 0.0 25.6
2014-Oct-20 05:42N 31°49' W 054°01'0 0.0 25.6
2014-Oct-20 01:41N 31°49' W 054°01'1 0.8 25.7
2014-Oct-20 00:03N 31°49' W 054°03'0 1.6 25.7
2014-Oct-20 00:00N 31°49' W 054°03'3 1.3 25.7
2014-Oct-19 21:53N 31°46' W 054°03'0 0.0 25.8
2014-Oct-19 21:05N 31°46' W 054°03'1 4.2 25.8
2014-Oct-19 20:57N 31°45' W 054°03'2 2.3 25.8
2014-Oct-19 20:17N 31°45' W 054°04'291.9 25.8
2014-Oct-19 20:16N 31°45' W 054°03'0 0.0 25.8
2014-Oct-19 19:26N 31°45' W 054°03'0 0.0 25.8
2014-Oct-19 19:25N 31°45' W 054°03'326.9 25.8
2014-Oct-19 19:19N 31°43' W 053°60'0 0.0 25.8
2014-Oct-19 18:31N 31°43' W 053°60'2 1.7
2014-Oct-19 17:20N 31°43' W 053°58'0 0.0 25.8
2014-Oct-19 15:38N 31°43' W 053°58'3 2.2 25.8
2014-Oct-19 14:26N 31°42' W 053°55'6 6.2 25.8
2014-Oct-19 13:32N 31°46' W 053°50'3 4.3 25.8
2014-Oct-19 12:46N 31°44' W 053°53'324.5 25.7
2014-Oct-19 12:38N 31°46' W 053°50'0 0.0 25.7
2014-Oct-19 10:37N 31°46' W 053°50'112.6 25.7
2014-Oct-19 10:31N 31°48' W 053°50'1 4.7 25.7
2014-Oct-19 10:15N 31°46' W 053°50'1 2.1
2014-Oct-19 09:39N 31°48' W 053°50'0 0.0 25.7
2014-Oct-19 09:34N 31°48' W 053°50'2 3.5 25.7
2014-Oct-19 08:54N 31°50' W 053°49'1 4.3 25.7
2014-Oct-19 08:42N 31°49' W 053°49'1 1.4 25.7
2014-Oct-19 08:03N 31°50' W 053°49'0 0.9 25.7
2014-Oct-19 07:58N 31°50' W 053°49'512.7 25.7
2014-Oct-19 07:33N 31°53' W 053°54'0 0.0 25.7
2014-Oct-19 07:18N 31°53' W 053°54'0 0.0 25.7
2014-Oct-19 05:58N 31°53' W 053°54'0 0.0 25.7
2014-Oct-19 05:51N 31°53' W 053°54'0 0.0 25.7
2014-Oct-19 04:12N 31°53' W 053°54'0 0.0 25.7
2014-Oct-19 01:59N 31°53' W 053°54'0 0.0 25.7
2014-Oct-19 01:09N 31°53' W 053°54'0 0.0 25.7
2014-Oct-19 00:24N 31°53' W 053°54'1 1.5 25.7
2014-Oct-18 23:36N 31°52' W 053°55'0 0.0 25.7
2014-Oct-18 23:08N 31°52' W 053°55'1 1.7 25.7
2014-Oct-18 22:17N 31°50' W 053°54'0 0.0 25.7
2014-Oct-18 21:30N 31°50' W 053°54'1 3.9 25.8
2014-Oct-18 21:11N 31°50' W 053°53'0 0.2
2014-Oct-18 20:42N 31°50' W 053°53'1 1.1 25.8
2014-Oct-18 19:36N 31°49' W 053°52'2 4.3 25.8
2014-Oct-18 19:09N 31°48' W 053°50'0 0.0 25.8
2014-Oct-18 18:54N 31°48' W 053°50'0 0.0 25.8
2014-Oct-18 17:54N 31°48' W 053°50'1 1.7 25.8
2014-Oct-18 17:34N 31°48' W 053°50'5 2.8 25.8
2014-Oct-18 15:44N 31°50' W 053°44'4 1.3 25.8
2014-Oct-18 12:58N 31°54' W 053°43'0 0.1 25.7
2014-Oct-18 10:47N 31°54' W 053°43'0 0.1 25.7
2014-Oct-18 09:49N 31°54' W 053°43'0 4.0 25.7
2014-Oct-18 09:44N 31°54' W 053°43'2 3.8 25.7
2014-Oct-18 09:16N 31°55' W 053°44'2107.6 25.7
2014-Oct-18 09:15N 31°54' W 053°43'2 1.6 25.7
2014-Oct-18 08:09N 31°55' W 053°44'118.7 25.7
2014-Oct-18 08:06N 31°56' W 053°43'0 0.0 25.7
2014-Oct-18 07:40N 31°56' W 053°43'0 0.0 25.7
2014-Oct-18 06:31N 31°56' W 053°43'342.4 25.7
2014-Oct-18 06:27N 31°57' W 053°47'0 0.0 25.7
2014-Oct-18 06:01N 31°57' W 053°47'0 0.0
2014-Oct-18 01:30N 31°57' W 053°47'1 0.8 25.6
2014-Oct-17 23:50N 31°56' W 053°45'0 0.3 25.6
2014-Oct-17 23:36N 31°56' W 053°45'0 0.0 25.6
2014-Oct-17 23:05N 31°56' W 053°45'1 0.5 25.6
2014-Oct-17 21:06N 31°56' W 053°44'1 0.6 25.6
2014-Oct-17 19:48N 31°55' W 053°44'1 1.7 25.6
2014-Oct-17 19:24N 31°55' W 053°43'1 0.5 25.6
2014-Oct-17 18:05N 31°55' W 053°42'4 8.6 25.6
2014-Oct-17 17:39N 31°56' W 053°38'2 1.3 25.6
2014-Oct-17 16:00N 31°58' W 053°37'0 0.0 25.5
2014-Oct-17 15:05N 31°58' W 053°37'5 6.5 25.5
2014-Oct-17 14:17N 32°02' W 053°34'0 0.0 25.4
2014-Oct-17 12:32N 32°02' W 053°33'0 0.0 25.4
2014-Oct-17 11:40N 32°02' W 053°33'0 0.0 25.4
2014-Oct-17 10:02N 32°02' W 053°33'0 0.5 25.4
2014-Oct-17 09:49N 32°02' W 053°33'216.3 25.4
2014-Oct-17 09:41N 32°04' W 053°35'0 0.0 25.4
2014-Oct-17 08:25N 32°04' W 053°35'0 0.0 25.4
2014-Oct-17 08:20N 32°04' W 053°35'0 3.1 25.4
2014-Oct-17 08:17N 32°04' W 053°34'0 2.2 25.4
2014-Oct-17 08:07N 32°05' W 053°34'0 0.0 25.4
2014-Oct-17 08:05N 32°05' W 053°34'2 1.1 25.4
2014-Oct-17 06:41N 32°06' W 053°35'0 1.1 25.4
2014-Oct-17 06:20N 32°06' W 053°35'216.4 25.4
2014-Oct-17 06:11N 32°07' W 053°37'0 0.0 25.4
2014-Oct-17 04:33N 32°07' W 053°37'0 0.0 25.4
2014-Oct-17 01:04N 32°07' W 053°37'1 1.2 25.4
2014-Oct-17 00:16N 32°07' W 053°38'0 0.0 25.5
2014-Oct-16 23:27N 32°07' W 053°38'212.2 25.5
2014-Oct-16 23:19N 32°06' W 053°36'0 0.0 25.5
2014-Oct-16 22:30N 32°06' W 053°36'0 0.0 25.5
2014-Oct-16 21:36N 32°06' W 053°36'0 0.0 25.5
2014-Oct-16 21:30N 32°06' W 053°36'1 1.6 25.5
2014-Oct-16 20:45N 32°06' W 053°34'0 0.0 25.5
2014-Oct-16 20:00N 32°06' W 053°34'0 2.5 25.5
2014-Oct-16 19:49N 32°06' W 053°34'0 0.0 25.5
2014-Oct-16 18:18N 32°06' W 053°34'11 1.7 25.6
2014-Oct-16 12:00N 32°15' W 053°27'0 0.0 25.5
2014-Oct-16 10:16N 32°15' W 053°27'4 2.4 25.5
2014-Oct-16 08:31N 32°19' W 053°29'0 0.0 25.5
2014-Oct-16 08:28N 32°19' W 053°29'0 0.1 25.5
2014-Oct-16 06:50N 32°19' W 053°29'   25.5

Dump ship's entire track history